Regional Weather Roundup
Issued by NWS

Home | Current Version | Previous Version | Graphics & Text | Print | Product List | Glossary Off
Versions: 1 2 3 4 5 6 7 8 9 10 11 12 13 14 15 16 17 18 19 20 21 22 23 24 25 26 27 28 29 30 31 32 33 34 35 36 37 38 39 40 41 42 43 44 45 46 47 48 49 50

000
ASUS43 KDMX 221101
RWRIA

WEATHER ROUNDUP FOR IOWA
NATIONAL WEATHER SERVICE DES MOINES IA
600 AM CDT SAT JUL 22 2017

NOTE: "FAIR" INDICATES FEW OR NO CLOUDS BELOW 12,000 FEET WITH NO
SIGNIFICANT WEATHER AND/OR OBSTRUCTIONS TO VISIBILITY.

* - THESE STATIONS ARE NOT NWS STATIONS...THUS NOT UNDER NWS
QUALITY CONTROL.  THEY ALSO DO NOT REPORT WEATHER SUCH
AS PRECIPITATION OR FOG.

IAZ001>003-012>014-020>022-031>034-043>046-221200-
   NORTHWEST IOWA

CITY           SKY/WX    TMP DP  RH WIND       PRES   REMARKS
CARROLL *      CLOUDY    73  72  94 E5        29.79S FOG
CHEROKEE *     CLOUDY    73  72  98 CALM      29.82F
DENISON *      CLOUDY    73  73 100 NE5       29.81F FOG
ORANGE CITY *  CLOUDY    72  72 100 E5        29.81F FOG
SHELDON *      CLOUDY    70  70 100 SE8       29.78F FOG
SIOUX CITY     CLOUDY    75  73  93 E5        29.79F
SPENCER        CLOUDY    71  70  96 SE5       29.79F FOG
STORM LAKE *   CLOUDY    72  70  94 N8        29.83R FOG
$$

IAZ055>058-069>071-079>083-090>094-221200-
   SOUTHWEST IOWA

CITY           SKY/WX    TMP DP  RH WIND       PRES   REMARKS
ATLANTIC *     CLOUDY    75  75 100 NE7       29.78F
AUDUBON *      CLOUDY    73  70  88 N5        29.80F FOG
CLARINDA *     CLOUDY    73  72  94 CALM      29.80S
COUNCIL BLFS * CLOUDY    75  75 100 N7G13     29.78S
CRESTON *      PTCLDY    75  72  88 CALM      29.81S
HARLAN  *      CLOUDY    75  75 100 NE7       29.83R FOG
LAMONI         CLOUDY    79  72  79 CALM      29.80R HX  82
RED OAK *      MOCLDY    75  73  94 CALM      29.78R
SHENANDOAH *   CLEAR     75  72  88 CALM      29.78R
$$

IAZ047>049-059>061-072>074-084-221200-
   CENTRAL IOWA

CITY           SKY/WX    TMP DP  RH WIND       PRES   REMARKS
AMES           CLOUDY    73  73 100 SE10      29.76F
ANKENY *       CLOUDY    77  73  88 E14       29.77F
BOONE *        MOCLDY    72  72 100 SE10      29.75F
CHARITON *     MOCLDY    79  72  78 NE7       29.81R HX  82
DES MOINES     CLOUDY    81  74  79 E7        29.77S THUNDER HX  86
GRINNELL*      CLOUDY    73  67  81 SE14      29.81F
KNOXVILLE *    PTCLDY    79  73  83 E16G23    29.79S HX  82
MARSHALLTOWN   CLOUDY    73  70  90 SE10      29.76F
NEWTON *       CLOUDY    73  70  88 E16G22    29.80F
PELLA *        MOCLDY    74  68  80 E10G20    29.83R
$$

IAZ004>006-015-016-023>025-035-036-221200-
   NORTH CENTRAL IOWA

CITY           SKY/WX    TMP DP  RH WIND       PRES   REMARKS
ALGONA *       CLOUDY    70  70 100 CALM      29.79F FOG
CLARION *      FOG       72  72 100 CALM      29.77F VSB 1
ESTHERVILLE    CLOUDY    69  69 100 S5        29.78F FOG
FORT DODGE *   CLOUDY    72  70  94 SE5       29.78F VSB 1/2
MASON CITY     CLOUDY    71  69  93 N3        29.80F FOG
FOREST CITY *  CLOUDY    70  70 100 CALM      29.79F FOG
WEBSTER CITY * PTCLDY    70  70 100 S3        29.76F
IOWA FALLS *     N/A     71  70  96 SW3       29.78F
$$

IAZ007>011-017>019-026>030-037>042-050>054-066-221200-
   NORTHEAST IOWA

CITY           SKY/WX    TMP DP  RH WIND       PRES   REMARKS
CEDAR RAPIDS   CLOUDY    69  69 100 S14       29.76F
CHARLES CITY * FOG       72  72 100 CALM      29.78S VSB 1/4
DECORAH *      CLOUDY    70  70 100 CALM      29.78S FOG
DUBUQUE        TSTM      68  68 100 S21G28    29.77F
MONTICELLO *   CLOUDY    70  68  94 SE14G21   29.77F
OELWEIN *        N/A    N/A N/A N/A MISG        N/A
WATERLOO       CLOUDY    70  68  93 W7        29.73F
$$

IAZ064-065-067-068-078-221200-
   EAST CENTRAL IOWA

CITY           SKY/WX    TMP DP  RH WIND       PRES   REMARKS
DAVENPORT      LGT RAIN  69  68  96 S15       29.89F
IOWA CITY      CLOUDY    72  69  90 SE13      29.84F
MUSCATINE *    HVY RAIN  70  68  94 SE10      29.86F
QUAD CITIES    CLOUDY    69  67  93 SE8       29.87F
$$

IAZ062-063-075>077-085>089-095>099-221200-
   SOUTHEAST IOWA

CITY           SKY/WX    TMP DP  RH WIND       PRES   REMARKS
BURLINGTON     TSTM      71  70  96 NE17G25   29.91R
FAIRFIELD *    CLOUDY    72  68  88 E21       29.85F
FORT MADISON * LGT RAIN  72  70  94 E14       29.92R
KEOKUK *       RAIN      77  73  88 N9        29.88R
OSKALOOSA *    CLOUDY    73  68  85 E13G23    29.85R
OTTUMWA        LGT RAIN  73  72  96 E20       29.85R
WASHINGTON *   CLOUDY    72  70  94 E16G24    29.87F
$$

ABBREVIATIONS USED IN REMARKS
   TC - TEMPERATURES IN CELSIUS
  WCI - WIND CHILL INDEX
   HX - HEAT INDEX
  VSB - VISIBILITY
$$





USA.gov is the U.S. government's official web portal to all federal, state and local government web resources and services.